GLOBALSTAR M052

Satellite information

Favourite Embed

Satellite Type and Status

PAYLOADIN ORBIT

Key statistics

Satellite GLOBALSTAR M052 at a glance.

Uptime

9524

Days in orbit

Revolutions

≈ 11.2

Per day

Orbit

MEO

Medium Earth Orbit

Inclination

52.0

Latest

Satellite identification and parameters

Extended collection of information and parameters for GLOBALSTAR M052.

Object identification

Identified? True

Debris? False

Object name: GLOBALSTAR M052

International designator: 1999-031D

Object number (NORAD): 25773

Object ID (CCSDS): 25773

Country: GLOBALSTAR (GLOB)

Current information (Y/N): Y

RCS size: LARGE

Orbital parameters

Period: 129.141 minutes

Inclination: 51.986 deg

SMA: 8463.235 km

Apoapsis: 2087.673 km

Periapsis: 2082.527 km

RAAN: 258.8584 deg

Eccentricy: 0.000304

Argument of periapsis: 202.9819 deg

Mean anomaly: 243.9051 deg

Mean motion: 11.15059869 rev/day

Mean motion (dot): -0.00000085 rev/day2

B* drag term: -0.00062741 1/REarth

Two-line elements (TLE)

Creation date: July 6, 2025, 6:05 p.m.

Reference frame: TEME

Reference center: EARTH

Epoch: July 6, 2025, 10:02 a.m. UTC

TLE line 0: 0 GLOBALSTAR M052

TLE line 1: 1 25773U 99031D 25187.41808560 -.00000085 00000-0 -62741-3 0 9999

TLE line 2: 2 25773 51.9860 258.8584 0003040 202.9819 243.9051 11.15059869480655

Live tracking on map

Real-time ground track for satellite GLOBALSTAR M052.

In-orbit conjunctions

There are no conjunctions computed for GLOBALSTAR M052, at the moment. Check back to stay up to date, as we update our databases every day.

Go to all conjunctions

Associated space launch

The Globalstar global mobile communications network offers global, digital real time voice, data and fax via a constellation of 48 minisatellites. The constellation operates in a 1410 km orbit inclined at 52 degrees, and will also have 8 spares. The satellites were built by Space Systems Loral and Alenia Aerospazio in Rome, Italy.

GLOBALSTAR M052 was lifted into orbit during the mission ‘Delta 7420-10C | Globalstar 25,47,49,52’, on board a Delta 7420-10C space rocket.

The launch took place on June 10, 1999, 1:48 p.m. from Space Launch Complex 17B.

For more information about the launch, click the button.

Launch to space Delta 7420-10C | Globalstar 25,47,49,52
Delta 7420-10C | Globalstar 25,47,49,52

Agency: N/A

Status: Launch Successful

Launch date: June 10, 1999, 1:48 p.m. UTC

Rocket: Delta 7420-10C

Launch pad: Space Launch Complex 17B

Location: Cape Canaveral SFS, FL, USA

...

Latest news about this satellite

There are no fresh news available about this satellite. Check back as we update our databases every day.


Newsletter sign-up

Weekly statistics, charts and insights to help you stay on top of the space industry.